User: anonymous   Login
Location: Unspecified
(0.0000°N, 0.0000°E)
Time: 07:41:07
(UTC+00:00)
Language:

Optus B3 - Orbit

View from above orbital plane
View from above orbital plane
View from above satellite
View from above satellite

Ground track
Ground track

The orbit data is extracted from the following two-line orbital elements,

1 23227U 94055A   21215.28279162 -.00000225  00000-0  00000-0 0  9997
2 23227   9.6135  41.5580 0008415  11.4394 346.0365  0.98699470 98359
Epoch (UTC): 03 August 2021 06:47:13
Eccentricity: 0.0008415
inclination: 9.6135°
perigee height: 36197 km
apogee height: 36268 km
right ascension of ascending node: 41.5580°
argument of perigee: 11.4394°
revolutions per day: 0.98699470
mean anomaly at epoch: 346.0365°
orbit number at epoch: 9835

The dashed part of the orbit path shows where the satellite is in the earth's shadow,  

DLR